Elefsis, Greece

2:05 PM EEST on March 26, 2017 (GMT +0300)
Elefsis Air Base

Weather History for LGEL - January, 2014

Change the Weather History Date:

Friday, January 10, 2014

  Actual Average Record
Temperature  
Mean Temperature 52 °F -  
Max Temperature 62 °F 54 °F 69 °F (2001)
Min Temperature 42 °F 40 °F 28 °F (2017)
Degree Days  
Heating Degree Days 13    
Growing Degree Days 2 (Base 50)    
Moisture  
Dew Point 45 °F    
Average Humidity 77    
Maximum Humidity 87    
Minimum Humidity 59    
Precipitation  
Precipitation 0.00 in - - ()
Sea Level Pressure  
Sea Level Pressure 30.09 in    
Wind  
Wind Speed 3 mph ()    
Max Wind Speed 12 mph    
Max Gust Speed -    
Visibility 5.6 miles    
Events      
Averages and records for this station are not official NWS values.
T = Trace of Precipitation, MM = Missing Value Source: Averaged Metar Reports

Daily Weather History Graph

Daily Weather History Graph

Search for Another Location

Airport or City:

Trip Planner

Search our weather history database for the weather conditions in past years. The results will help you decide how hot, cold, wet, or windy it might be!

Date:

Astronomy

Jan. 10, 2014 Rise Set
Actual Time 7:42 AM EET 5:24 PM EET
Civil Twilight 7:12 AM EET 5:53 PM EET
Nautical Twilight 6:40 AM EET 6:26 PM EET
Astronomical Twilight 6:08 AM EET 6:58 PM EET
Moon 1:15 PM EET (1/10) 2:32 AM EET (1/10)
Length of Visible Light 10h 40m
Length of Day
9h 42m
Waxing Gibbous, 72% of the Moon is Illuminated
Jan 10
Waxing Gibbous
Jan 16
Full
Jan 24
Last Quarter
Jan 30
New
Feb 6
First Quarter

Hourly Weather History & Observations

Time (EET) Temp. Windchill Dew Point Humidity Pressure Visibility Wind Dir Wind Speed Gust Speed Precip Events Conditions
1:50 AM 42.8 °F 40.1 °F 37.4 °F 81% 30.15 in - North 4.6 mph - N/A   Clear
2:50 AM 44.6 °F 41.4 °F 39.2 °F 81% 30.15 in - NNW 5.8 mph - N/A   Clear
3:50 AM 42.8 °F 40.1 °F 39.2 °F 87% 30.12 in - North 4.6 mph - N/A   Clear
4:50 AM 42.8 °F 39.3 °F 39.2 °F 87% 30.12 in - NNW 5.8 mph - N/A   Clear
5:20 AM 42.8 °F 39.3 °F 39.2 °F 87% 30.12 in - NNW 5.8 mph - N/A   Clear
5:50 AM 44.6 °F 42.2 °F 39.2 °F 81% 30.12 in - NNW 4.6 mph - N/A   Clear
6:20 AM 44.6 °F 42.2 °F 39.2 °F 81% 30.12 in - NNW 4.6 mph - N/A   Clear
6:50 AM 42.8 °F - 39.2 °F 87% 30.12 in - Calm Calm - N/A   Clear
7:20 AM 42.8 °F - 39.2 °F 87% 30.12 in - Calm Calm - N/A   Clear
7:50 AM 42.8 °F 40.1 °F 39.2 °F 87% 30.12 in - NNW 4.6 mph - N/A   Clear
8:20 AM 44.6 °F 42.2 °F 41.0 °F 87% 30.12 in - NNW 4.6 mph - N/A   Clear
8:50 AM 46.4 °F - 42.8 °F 87% 30.12 in - Calm Calm - N/A   Clear
9:20 AM 50.0 °F - 46.4 °F 87% 30.12 in 5.6 mi Calm Calm - N/A   Unknown
9:50 AM 51.8 °F - 46.4 °F 82% 30.15 in 5.6 mi Calm Calm - N/A   Unknown
10:20 AM 55.4 °F - 46.4 °F 72% 30.15 in 5.6 mi Calm Calm - N/A   Unknown
10:50 AM 59.0 °F - 48.2 °F 67% 30.15 in - Calm Calm - N/A   Clear
11:20 AM 59.0 °F - 48.2 °F 67% 30.15 in - Calm Calm - N/A   Clear
11:50 AM 59.0 °F - 48.2 °F 67% 30.12 in - Calm Calm - N/A   Clear
12:20 PM 59.0 °F - 48.2 °F 67% 30.09 in - Calm Calm - N/A   Clear
12:50 PM 59.0 °F - 48.2 °F 67% 30.12 in - Calm Calm - N/A   Clear
1:20 PM 62.6 °F - 48.2 °F 59% 30.06 in - Calm Calm - N/A   Clear
1:50 PM 62.6 °F - 48.2 °F 59% 30.06 in - SW 9.2 mph - N/A   Clear
2:20 PM 62.6 °F - 48.2 °F 59% 30.06 in - SW 8.1 mph - N/A   Clear
2:50 PM 62.6 °F - 48.2 °F 59% 30.04 in - SSW 10.4 mph - N/A   Clear
3:20 PM 62.6 °F - 48.2 °F 59% 30.04 in - SSW 11.5 mph - N/A   Clear
3:50 PM 60.8 °F - 48.2 °F 63% 30.04 in - SSW 8.1 mph - N/A   Clear
4:20 PM 60.8 °F - 48.2 °F 63% 30.04 in - SW 6.9 mph - N/A   Clear
4:50 PM 60.8 °F - 50.0 °F 68% 30.04 in - Calm Calm - N/A   Clear
5:20 PM 57.2 °F - 48.2 °F 72% 30.04 in - Calm Calm - N/A   Clear
5:50 PM 57.2 °F - 48.2 °F 72% 30.04 in - ENE 4.6 mph - N/A   Clear
6:50 PM 55.4 °F - 48.2 °F 77% 30.06 in - Calm Calm - N/A   Clear
7:20 PM 51.8 °F - 46.4 °F 82% 30.06 in - NNE 4.6 mph - N/A   Clear
7:50 PM 55.4 °F - 48.2 °F 77% 30.06 in - Calm Calm - N/A   Clear
8:20 PM 50.0 °F - 46.4 °F 87% 30.06 in - Calm Calm - N/A   Clear
8:50 PM 48.2 °F - 44.6 °F 87% 30.06 in - Calm Calm - N/A   Clear
9:20 PM 48.2 °F - 44.6 °F 87% 30.06 in - Calm Calm - N/A   Clear
9:50 PM 48.2 °F - 44.6 °F 87% 30.09 in - Calm Calm - N/A   Clear
10:20 PM 50.0 °F - 46.4 °F 87% 30.09 in - Calm Calm - N/A   Clear
10:50 PM 48.2 °F - 44.6 °F 87% 30.09 in - Calm Calm - N/A   Clear
11:50 PM 46.4 °F - 42.8 °F 87% 30.09 in - Calm Calm - N/A   Clear